Regional Weather Roundup
Issued by NWS

Home | Current Version | Previous Version | Graphics & Text | Print | Product List | Glossary Off
Versions: 1 2 3 4 5 6 7 8 9 10 11 12 13 14 15 16 17 18 19 20 21 22 23 24 25 26 27 28 29 30 31 32 33 34 35 36 37 38 39 40 41 42 43 44 45 46 47 48 49 50

000
ASUS43 KLSX 220557
RWRMO

WEATHER SUMMARY FOR MISSOURI
NATIONAL WEATHER SERVICE SPRINGFIELD MO
1200 AM CST WED FEB 22 2017

NOTE: "FAIR" INDICATES FEW OR NO CLOUDS BELOW 12,000 FEET WITH NO
       SIGNIFICANT WEATHER AND/OR OBSTRUCTIONS TO VISIBILITY.
       CURRENT SKY AND/OR WEATHER CONDITIONS ARE NOT AVAILABLE FOR
       CHILLICOTHE AND FARMINGTON.

MOZ001>031-035>038-043-044-053-054-220700-
...NORTHERN AND WESTERN MISSOURI...

CITY           SKY/WX    TMP DP  RH WIND       PRES   REMARKS
KANSAS CTY INT CLEAR     45  33  63 S9        29.86F
6HR MIN TEMP:  45; 6HR MAX TEMP:  67;

LEE`S SUMMIT   CLEAR     54  45  71 SW5       29.88S
6HR MIN TEMP:  53; 6HR MAX TEMP:  67;

ST JOSEPH      CLEAR     44  37  76 S3        29.84F
6HR MIN TEMP:  42; 6HR MAX TEMP:  65;

CHILLICOTHE      N/A     43  39  86 S3        29.88R
6HR MIN TEMP:  43; 6HR MAX TEMP:  65;


$$
MOZ066>068-077>081-088>096-101>105-220700-
...SOUTHWEST MISSOURI...

CITY           SKY/WX    TMP DP  RH WIND       PRES   REMARKS
SPRINGFIELD    FOG       50  49  96 SW5       29.90S VSB 1/4
6HR MIN TEMP:  48; 6HR MAX TEMP:  61;

JOPLIN         CLEAR     53  52  96 S5        29.93S
6HR MIN TEMP:  51; 6HR MAX TEMP:  66;


$$
MOZ032>034-039>042-045>050-055>058-069>072-220700-
...CENTRAL MISSOURI...

CITY           SKY/WX    TMP DP  RH WIND       PRES   REMARKS
COLUMBIA       NOT AVBL
JEFFERSON CITY FOG       49  49 100 NW3       29.87F VSB 1/4
6HR MIN TEMP:  49; 6HR MAX TEMP:  64;

SEDALIA        CLEAR     57  54  89 SW8       29.89F
6HR MIN TEMP:  55; 6HR MAX TEMP:  66;

WARRENSBURG    CLEAR     50  45  81 S5        29.88S

$$
MOZ051-052-059>065-220700-
...EAST CENTRAL MISSOURI...

CITY           SKY/WX    TMP DP  RH WIND       PRES   REMARKS
ST LOUIS INTL  MOCLDY    58  55  90 SE8       29.87F FOG
6HR MIN TEMP:  55; 6HR MAX TEMP:  63;


$$
MOZ072>076-082>087-097>100-106>115-220700-
...SOUTH CENTRAL AND SOUTHEAST MISSOURI...

CITY           SKY/WX    TMP DP  RH WIND       PRES   REMARKS
CAPE GIRARDEAU PTCLDY    58  55  90 S8        29.89F
6HR MIN TEMP:  57; 6HR MAX TEMP:  61; 6HR PCP: TRACE;

POPLAR BLUFF   CLOUDY    59  58  96 SE12      29.87F
6HR MIN TEMP:  59; 6HR MAX TEMP:  61;

WEST PLAINS    CLOUDY    55  54  96 CALM      29.91F FOG
6HR MIN TEMP:  53; 6HR MAX TEMP:  58;


$$



USA.gov is the U.S. government's official web portal to all federal, state and local government web resources and services.